Kinston, NC

8:47 AM EDT on October 01, 2016 (GMT -0400)
Kinston Regional Jetport / Stallings Field

Weather History for KISO - November, 2013

Change the Weather History Date:

Thursday, November 28, 2013

  Actual Average Record
Temperature  
Mean Temperature 35 °F -  
Max Temperature 44 °F 59 °F 82 °F (2001)
Min Temperature 26 °F 39 °F 26 °F (2013)
Degree Days  
Heating Degree Days 30    
Moisture  
Dew Point 22 °F    
Average Humidity 70    
Maximum Humidity 96    
Minimum Humidity 36    
Precipitation  
Precipitation 0.05 in - - ()
Sea Level Pressure  
Sea Level Pressure 30.37 in    
Wind  
Wind Speed 4 mph (NW)    
Max Wind Speed 10 mph    
Max Gust Speed -    
Visibility 10 miles    
Events      
Averages and records for this station are not official NWS values.
T = Trace of Precipitation, MM = Missing Value Source: NWS Daily Summary

Daily Weather History Graph

Daily Weather History Graph

Search for Another Location

Airport or City:

Trip Planner

Search our weather history database for the weather conditions in past years. The results will help you decide how hot, cold, wet, or windy it might be!

Date:

Astronomy

Nov. 28, 2013 Rise Set
Actual Time 6:58 AM EST 4:58 PM EST
Civil Twilight 6:30 AM EST 5:26 PM EST
Nautical Twilight 5:59 AM EST 5:57 PM EST
Astronomical Twilight 5:28 AM EST 6:28 PM EST
Moon 2:08 AM EST (11/28) 1:58 PM EST (11/28)
Length of Visible Light 10h 55m
Length of Day
10h 00m
Waning Crescent, 22% of the Moon is Illuminated
Nov 28
Waning Crescent
Dec 2
New
Dec 9
First Quarter
Dec 17
Full
Dec 25
Last Quarter

Hourly Weather History & Observations

Time (EST) Temp. Windchill Dew Point Humidity Pressure Visibility Wind Dir Wind Speed Gust Speed Precip Events Conditions
12:15 AM 32.2 °F 27.7 °F 21.6 °F 65% 30.17 in 10.0 mi WNW 4.6 mph - 0.01 in   Clear
12:35 AM 32.0 °F 26.4 °F 21.7 °F 66% 30.16 in 10.0 mi WNW 5.8 mph - 0.01 in   Clear
12:55 AM 32.0 °F 26.4 °F 21.2 °F 64% 30.17 in 10.0 mi NW 5.8 mph - 0.01 in   Clear
1:15 AM 31.8 °F 26.2 °F 21.2 °F 65% 30.18 in 10.0 mi WNW 5.8 mph - N/A   Clear
1:35 AM 31.5 °F 24.9 °F 21.0 °F 65% 30.18 in 10.0 mi NW 6.9 mph - N/A   Clear
1:55 AM 31.5 °F 26.8 °F 20.7 °F 64% 30.21 in 10.0 mi WNW 4.6 mph - 0.01 in   Clear
2:15 AM 31.1 °F 24.5 °F 20.3 °F 64% 30.22 in 10.0 mi NW 6.9 mph - N/A   Clear
2:35 AM 31.1 °F 24.5 °F 19.8 °F 63% 30.23 in 10.0 mi NW 6.9 mph - N/A   Clear
2:55 AM 30.9 °F 26.2 °F 19.6 °F 63% 30.25 in 10.0 mi NW 4.6 mph - N/A   Clear
3:15 AM 30.7 °F 24.1 °F 19.4 °F 63% 30.25 in 10.0 mi NW 6.9 mph - N/A   Clear
3:35 AM 30.6 °F 24.7 °F 19.2 °F 63% 30.26 in 10.0 mi NW 5.8 mph - N/A   Clear
3:55 AM 29.7 °F 24.7 °F 19.4 °F 66% 30.26 in 10.0 mi NW 4.6 mph - 0.01 in   Clear
4:15 AM 29.3 °F 24.3 °F 19.4 °F 67% 30.27 in 10.0 mi WNW 4.6 mph - N/A   Clear
4:35 AM 29.3 °F 25.6 °F 18.9 °F 65% 30.27 in - WNW 3.5 mph - N/A   Clear
4:55 AM 28.9 °F 25.2 °F 18.9 °F 66% 30.29 in - WNW 3.5 mph - N/A   Clear
5:15 AM 28.4 °F 24.6 °F 19.2 °F 69% 30.31 in - NW 3.5 mph - N/A   Clear
5:35 AM 28.0 °F - 19.4 °F 70% 30.31 in - Calm Calm - 0.01 in   Clear
5:55 AM 28.0 °F 24.2 °F 19.0 °F 69% 30.33 in - WNW 3.5 mph - 0.01 in   Clear
6:56 AM 26.6 °F - 19.4 °F 74% 30.36 in 10.0 mi Calm Calm - N/A   Clear
7:56 AM 28.4 °F 24.6 °F 19.4 °F 69% 30.39 in 10.0 mi NW 3.5 mph - N/A   Clear
8:56 AM 32.0 °F 26.4 °F 19.4 °F 60% 30.42 in 10.0 mi NNW 5.8 mph - N/A   Clear
9:58 AM 35.6 °F 28.0 °F 19.4 °F 52% 30.43 in 10.0 mi North 10.4 mph - N/A   Clear
10:56 AM 37.4 °F 30.8 °F 19.4 °F 48% 30.43 in 10.0 mi North 9.2 mph - N/A   Clear
11:56 AM 39.2 °F 35.9 °F 17.6 °F 42% 30.41 in 10.0 mi North 4.6 mph - N/A   Clear
12:56 PM 41.0 °F 38.0 °F 19.4 °F 42% 30.40 in 10.0 mi North 4.6 mph - N/A   Clear
1:56 PM 44.6 °F 43.1 °F 19.4 °F 37% 30.40 in 10.0 mi NNE 3.5 mph - N/A   Clear
2:56 PM 42.8 °F - 19.4 °F 39% - 10.0 mi Calm Calm - N/A   Clear
3:56 PM 42.8 °F - 17.6 °F 36% 30.44 in 10.0 mi Calm Calm - N/A   Clear
4:56 PM 39.2 °F - 23.0 °F 52% 30.45 in 10.0 mi Calm Calm - N/A   Clear
5:56 PM 32.0 °F - 28.4 °F 87% 30.46 in 10.0 mi Calm Calm - N/A   Clear
6:56 PM 32.0 °F - 28.4 °F 87% 30.48 in 10.0 mi Calm Calm - N/A   Clear
8:15 PM 30.0 °F - 26.6 °F 87% 30.50 in - Calm Calm - N/A   Unknown
8:35 PM 29.5 °F - 27.1 °F 91% 30.51 in - Calm Calm - N/A   Unknown
8:55 PM 30.0 °F - 26.2 °F 86% 30.51 in - Calm Calm - N/A   Unknown
9:15 PM 28.8 °F - 26.8 °F 92% 30.51 in - Calm Calm - N/A   Unknown
9:35 PM 28.0 °F - 26.6 °F 94% 30.51 in - Calm Calm - N/A   Unknown
9:55 PM 28.0 °F - 26.4 °F 94% 30.51 in - Calm Calm - 0.01 in   Unknown
10:15 PM 27.9 °F - 26.4 °F 94% 30.51 in - Calm Calm - N/A   Unknown
10:35 PM 27.9 °F - 26.6 °F 95% 30.52 in - Calm Calm - N/A   Unknown
10:55 PM 27.5 °F - 26.4 °F 96% 30.52 in - Calm Calm - N/A   Unknown
11:15 PM 27.5 °F - 26.2 °F 95% 30.51 in - Calm Calm - N/A   Unknown
11:35 PM 27.9 °F - 26.6 °F 95% 30.51 in - Calm Calm - N/A   Unknown
11:55 PM 28.0 °F - 26.6 °F 94% 30.51 in - Calm Calm - N/A   Unknown